Powrót do katalogu

ONEWEB-0565

AktywnyŁącznośćPO
NORAD 55146·PAYLOAD·🇬🇧 United Kingdom

Wystrzelony Jan 10, 2023 z Cape Canaveral Space Force Station

Loading…

Następne Przeloty (najbliższe 24 godziny)

TLE

ŚwieżeSource: CelesTrak SupGP

Epoka: Sep 14, 2026, 15:00 UTC

1 55146C 23004G   26257.62514306 -.00001343  00000+0 -34107-2 0  2575
2 55146  87.9155 317.7054 0001556  99.8050  10.0290 13.18689676    11

Śledź ONEWEB-0565 w czasie rzeczywistym z AllMySat

Download on the App Store